When you browse on this site, cookies collect data to enhance your experience and personalize the content and advertising you see.
Visit our Privacy Policy to learn more. By continuing to use the site, you agree to this use of cookies and data.
  • In Lithuania
  • List of Countries
  • For 7 days
  • Water Temperature
  • Weather Map
  • Weather Widgets
  • user-avatar
    Login

    Hourly Weather Chrudim

    Today, 26 January, Sunday

    Time Temperature Precipitation Wind Pressure Humidity
    00:00 0°C° 0 mm 1 mps 742 mmHg 85%
    01:00 0°C° 0 mm 1 mps 742 mmHg 85%
    02:00 0°C° 0 mm 1 mps 742 mmHg 86%
    03:00 -1°C° 0 mm 1 mps 742 mmHg 86%
    04:00 -1°C° 0 mm 1 mps 742 mmHg 86%
    05:00 -1°C° 0 mm 1 mps 742 mmHg 86%
    06:00 -1°C° 0 mm 1 mps 741 mmHg 86%
    07:00 -1°C° 0 mm 1 mps 741 mmHg 86%
    08:00 0°C° 0 mm 1 mps 742 mmHg 83%
    09:00 +1°C° 0 mm 1 mps 742 mmHg 80%
    10:00 +2°C° 0 mm 1 mps 742 mmHg 77%
    11:00 +2°C° 0 mm 1 mps 742 mmHg 75%
    12:00 +3°C° 0 mm 1 mps 741 mmHg 73%
    13:00 +4°C° 0 mm 1 mps 741 mmHg 72%
    14:00 +3°C° 0 mm 1 mps 741 mmHg 75%
    15:00 +3°C° 0 mm 1 mps 741 mmHg 78%
    16:00 +2°C° 0 mm 1 mps 741 mmHg 81%
    17:00 +2°C° 0 mm 1 mps 741 mmHg 83%
    18:00 +2°C° 0 mm 1 mps 740 mmHg 85%
    19:00 -1°C° 0 mm 2 mps 740 mmHg 87%
    20:00 +1°C° 0 mm 1 mps 740 mmHg 86%
    21:00 +1°C° 0 mm 1 mps 740 mmHg 86%
    22:00 +1°C° 0 mm 1 mps 740 mmHg 85%
    23:00 +1°C° 0 mm 1 mps 740 mmHg 85%

    Tomorrow, 27 January, Monday

    Time Temperature Precipitation Wind Pressure Humidity
    00:00 +2°C° 0 mm 1 mps 740 mmHg 85%
    01:00 +2°C° 0 mm 1 mps 740 mmHg 84%
    02:00 +2°C° 0 mm 1 mps 740 mmHg 84%
    03:00 +2°C° 0 mm 1 mps 740 mmHg 84%
    04:00 +2°C° 0 mm 1 mps 739 mmHg 85%
    05:00 +2°C° 0 mm 1 mps 739 mmHg 85%
    06:00 +2°C° 0 mm 1 mps 739 mmHg 85%
    07:00 +1°C° 0 mm 2 mps 739 mmHg 86%
    08:00 +2°C° 0 mm 2 mps 739 mmHg 85%
    09:00 +3°C° 0 mm 1 mps 739 mmHg 85%
    10:00 +4°C° 0 mm 1 mps 739 mmHg 84%
    11:00 +4°C° 0 mm 1 mps 739 mmHg 84%
    12:00 +4°C° 0 mm 2 mps 738 mmHg 84%
    13:00 +5°C° 0 mm 2 mps 738 mmHg 84%
    14:00 +4°C° 0 mm 2 mps 738 mmHg 86%
    15:00 +4°C° 0 mm 2 mps 737 mmHg 87%
    16:00 +4°C° 0 mm 2 mps 737 mmHg 89%
    17:00 +2°C° 0 mm 3 mps 736 mmHg 90%
    18:00 +2°C° 0 mm 3 mps 736 mmHg 90%
    19:00 +1°C° 0 mm 3 mps 736 mmHg 90%
    20:00 +1°C° 0 mm 3 mps 735 mmHg 90%
    21:00 +1°C° 0 mm 3 mps 735 mmHg 90%
    22:00 0°C° 0 mm 4 mps 735 mmHg 89%
    23:00 +1°C° 0 mm 3 mps 734 mmHg 89%

    Day after tomorrow, 28 January, Tuesday

    Time Temperature Precipitation Wind Pressure Humidity
    00:00 +1°C° 0 mm 3 mps 733 mmHg 89%
    01:00 +1°C° 0 mm 3 mps 732 mmHg 89%
    02:00 +1°C° 0 mm 3 mps 731 mmHg 90%
    03:00 +1°C° 0 mm 3 mps 731 mmHg 92%
    04:00 +1°C° 0 mm 3 mps 730 mmHg 93%
    05:00 +1°C° 0 mm 3 mps 729 mmHg 93%
    06:00 +1°C° 0 mm 3 mps 729 mmHg 93%
    07:00 0°C° 0 mm 4 mps 728 mmHg 93%
    08:00 +1°C° 0 mm 4 mps 728 mmHg 91%
    09:00 +1°C° 0 mm 4 mps 727 mmHg 89%
    10:00 +2°C° 0 mm 5 mps 727 mmHg 87%
    11:00 +3°C° 0 mm 4 mps 726 mmHg 84%
    12:00 +4°C° 0 mm 4 mps 726 mmHg 80%
    13:00 +4°C° 0 mm 4 mps 726 mmHg 77%
    14:00 +4°C° 0 mm 4 mps 725 mmHg 79%
    15:00 +4°C° 0 mm 4 mps 725 mmHg 80%
    16:00 +4°C° 0 mm 4 mps 725 mmHg 82%
    17:00 +3°C° 0.5 mm 4 mps 726 mmHg 82%
    18:00 +1°C° 0.5 mm 5 mps 726 mmHg 81%
    19:00 +1°C° 0.5 mm 6 mps 726 mmHg 80%
    20:00 +1°C° 0 mm 6 mps 726 mmHg 78%
    21:00 -1°C° 0 mm 7 mps 727 mmHg 76%
    22:00 -1°C° 0 mm 8 mps 727 mmHg 74%
    23:00 -1°C° 0 mm 7 mps 727 mmHg 74%

    29 January, Wednesday

    Time Temperature Precipitation Wind Pressure Humidity
    00:00 -2°C° 0 mm 6 mps 727 mmHg 74%
    01:00 -2°C° 0 mm 5 mps 727 mmHg 75%
    02:00 -2°C° 0 mm 5 mps 727 mmHg 78%
    03:00 -2°C° 0 mm 5 mps 727 mmHg 82%
    04:00 -1°C° 0 mm 5 mps 727 mmHg 86%
    05:00 -1°C° 0 mm 5 mps 727 mmHg 86%
    06:00 -1°C° 0 mm 5 mps 727 mmHg 86%
    07:00 -1°C° 0 mm 5 mps 727 mmHg 86%
    08:00 -2°C° 0 mm 6 mps 727 mmHg 82%
    09:00 -1°C° 0 mm 7 mps 728 mmHg 77%
    10:00 -1°C° 0 mm 8 mps 728 mmHg 73%
    11:00 0°C° 0.1 mm 8 mps 728 mmHg 71%
    12:00 0°C° 0.1 mm 8 mps 729 mmHg 68%
    13:00 0°C° 0.1 mm 8 mps 729 mmHg 66%
    14:00 0°C° 0 mm 8 mps 729 mmHg 67%
    15:00 0°C° 0 mm 8 mps 729 mmHg 68%
    16:00 -1°C° 0 mm 8 mps 730 mmHg 69%
    17:00 -1°C° 0 mm 8 mps 730 mmHg 71%
    18:00 -2°C° 0 mm 8 mps 730 mmHg 72%
    19:00 -2°C° 0 mm 8 mps 731 mmHg 74%
    20:00 -2°C° 0 mm 8 mps 731 mmHg 75%
    21:00 -3°C° 0 mm 9 mps 732 mmHg 77%
    22:00 -3°C° 0 mm 9 mps 732 mmHg 78%
    23:00 -3°C° 0.1 mm 9 mps 733 mmHg 80%

    30 January, Thursday

    Time Temperature Precipitation Wind Pressure Humidity
    00:00 -3°C° 0.1 mm 9 mps 734 mmHg 81%
    01:00 -2°C° 0.1 mm 8 mps 734 mmHg 82%
    02:00 -2°C° 0 mm 8 mps 735 mmHg 81%
    03:00 -2°C° 0 mm 8 mps 736 mmHg 80%
    04:00 -2°C° 0 mm 8 mps 736 mmHg 79%
    05:00 -2°C° 0 mm 8 mps 737 mmHg 79%
    06:00 -3°C° 0 mm 7 mps 737 mmHg 79%
    07:00 -3°C° 0 mm 7 mps 738 mmHg 78%
    08:00 -3°C° 0 mm 7 mps 738 mmHg 77%
    09:00 -2°C° 0 mm 7 mps 738 mmHg 75%
    10:00 -2°C° 0 mm 8 mps 738 mmHg 73%
    11:00 -1°C° 0 mm 8 mps 738 mmHg 71%
    12:00 0°C° 0 mm 8 mps 737 mmHg 68%
    13:00 0°C° 0 mm 8 mps 737 mmHg 66%
    14:00 0°C° 0 mm 8 mps 737 mmHg 69%
    15:00 0°C° 0 mm 7 mps 737 mmHg 72%
    16:00 0°C° 0 mm 7 mps 736 mmHg 74%
    17:00 0°C° 0 mm 7 mps 736 mmHg 76%
    18:00 0°C° 0 mm 7 mps 736 mmHg 78%
    19:00 0°C° 0 mm 7 mps 736 mmHg 80%
    20:00 +1°C° 0 mm 6 mps 736 mmHg 81%
    21:00 +1°C° 0 mm 6 mps 736 mmHg 83%
    22:00 +1°C° 0 mm 6 mps 736 mmHg 84%
    23:00 +1°C° 0 mm 6 mps 736 mmHg 84%

    31 January, Friday

    Time Temperature Precipitation Wind Pressure Humidity
    00:00 +1°C° 0 mm 6 mps 736 mmHg 85%
    01:00 +1°C° 0 mm 6 mps 736 mmHg 85%
    02:00 0°C° 0 mm 5 mps 736 mmHg 87%
    03:00 0°C° 0 mm 5 mps 737 mmHg 88%
    04:00 0°C° 0 mm 5 mps 737 mmHg 89%
    05:00 0°C° 0 mm 4 mps 737 mmHg 90%
    06:00 0°C° 0 mm 3 mps 737 mmHg 90%
    07:00 +1°C° 0 mm 2 mps 737 mmHg 91%
    08:00 +2°C° 0 mm 2 mps 737 mmHg 87%
    09:00 +4°C° 0 mm 1 mps 738 mmHg 84%
    10:00 +3°C° 0 mm 0 mps 738 mmHg 80%
    11:00 +4°C° 0 mm 0 mps 738 mmHg 76%
    12:00 +6°C° 0 mm 1 mps 738 mmHg 71%
    13:00 +7°C° 0 mm 1 mps 738 mmHg 67%
    14:00 +7°C° 0 mm 1 mps 738 mmHg 69%
    15:00 +6°C° 0 mm 1 mps 738 mmHg 71%
    16:00 +6°C° 0 mm 1 mps 738 mmHg 72%
    17:00 +5°C° 0 mm 1 mps 738 mmHg 75%
    18:00 +5°C° 0 mm 1 mps 738 mmHg 77%
    19:00 +3°C° 0 mm 2 mps 739 mmHg 79%
    20:00 +3°C° 0 mm 2 mps 739 mmHg 80%
    21:00 +4°C° 0 mm 2 mps 739 mmHg 81%
    22:00 +4°C° 0 mm 2 mps 739 mmHg 82%
    23:00 +4°C° 0.1 mm 2 mps 739 mmHg 85%
    Show more